Time,TemperatureF,DewpointF,PressureIn,WindDirection,WindDirectionDegrees,WindSpeedMPH,WindSpeedGustMPH,Humidity,HourlyPrecipIn,Conditions,Clouds,dailyrainin,SoftwareType,DateUTC
2013-10-07 00:00:00,66.6,49.4,28.07,SW,215,1.0,3.0,54,0.00,CLR,,0.00,WeatherDisplay:10.37,2013-10-07 04:00:00,
2013-10-07 00:10:00,66.6,49.9,28.07,SSW,209,1.0,2.0,55,0.00,CLR,,0.00,WeatherDisplay:10.37,2013-10-07 04:10:00,
2013-10-07 00:20:00,66.6,50.9,28.07,SW,221,0.0,2.0,57,0.00,CLR,,0.00,WeatherDisplay:10.37,2013-10-07 04:20:00,
2013-10-07 00:30:00,66.6,51.3,28.07,SSW,204,1.0,5.0,58,0.00,CLR,,0.00,WeatherDisplay:10.37,2013-10-07 04:30:00,
2013-10-07 00:40:00,66.6,52.7,28.07,SSW,210,1.0,3.0,61,0.00,CLR,,0.00,WeatherDisplay:10.37,2013-10-07 04:40:00,
2013-10-07 00:50:00,66.9,53.9,28.07,SSW,213,3.0,5.0,63,0.00,CLR,,0.00,WeatherDisplay:10.37,2013-10-07 04:50:00,
2013-10-07 01:00:00,67.1,55.4,28.07,SSW,205,5.0,6.0,66,0.00,CLR,,0.00,WeatherDisplay:10.37,2013-10-07 05:00:00,
2013-10-07 01:10:00,66.6,55.3,28.07,SW,219,5.0,6.0,67,0.00,CLR,,0.00,WeatherDisplay:10.37,2013-10-07 05:10:00,
2013-10-07 01:20:00,66.0,55.2,28.04,SW,217,1.0,6.0,68,0.00,CLR,,0.00,WeatherDisplay:10.37,2013-10-07 05:20:00,
2013-10-07 01:30:00,65.7,55.6,28.04,SW,227,0.0,3.0,70,0.00,CLR,,0.00,WeatherDisplay:10.37,2013-10-07 05:30:00,
2013-10-07 01:40:00,65.4,56.2,28.04,SW,236,0.0,3.0,72,0.00,CLR,,0.00,WeatherDisplay:10.37,2013-10-07 05:40:00,
2013-10-07 01:50:00,65.1,57.0,28.04,WNW,292,0.0,0.0,75,0.00,CLR,,0.00,WeatherDisplay:10.37,2013-10-07 05:50:00,
2013-10-07 02:00:00,64.8,57.4,28.04,WNW,302,0.0,2.0,77,0.00,CLR,,0.00,WeatherDisplay:10.37,2013-10-07 06:00:00,
2013-10-07 02:10:00,64.6,58.7,28.04,NNE,25,0.0,2.0,81,0.00,CLR,,0.00,WeatherDisplay:10.37,2013-10-07 06:10:00,
2013-10-07 02:20:00,64.6,58.6,28.04,WNW,292,0.0,0.0,81,0.00,CLR,,0.00,WeatherDisplay:10.37,2013-10-07 06:20:00,
2013-10-07 02:30:00,64.4,58.4,28.04,WNW,298,0.0,0.0,81,0.00,CLR,,0.00,WeatherDisplay:10.37,2013-10-07 06:30:00,
2013-10-07 02:40:00,64.4,58.8,28.04,NW,315,0.0,0.0,82,0.00,CLR,,0.00,WeatherDisplay:10.37,2013-10-07 06:40:00,
2013-10-07 02:50:00,64.4,58.8,28.04,West,276,0.0,2.0,82,0.00,CLR,,0.00,WeatherDisplay:10.37,2013-10-07 06:50:00,
2013-10-07 03:00:00,64.4,59.8,28.04,WSW,256,0.0,2.0,85,0.00,CLR,,0.00,WeatherDisplay:10.37,2013-10-07 07:00:00,
2013-10-07 03:10:00,64.4,61.1,28.04,ENE,68,1.0,2.0,89,0.00,CLR,,0.00,WeatherDisplay:10.37,2013-10-07 07:10:00,
2013-10-07 03:20:00,64.2,60.6,28.01,ENE,68,0.0,1.0,88,0.00,CLR,,0.00,WeatherDisplay:10.37,2013-10-07 07:20:00,
2013-10-07 03:30:00,64.0,60.4,28.04,NNE,22,0.0,0.0,88,0.00,CLR,,0.00,WeatherDisplay:10.37,2013-10-07 07:30:00,
2013-10-07 03:40:00,63.9,59.9,28.04,NNW,338,0.0,0.0,87,0.00,CLR,,0.00,WeatherDisplay:10.37,2013-10-07 07:40:00,
2013-10-07 03:50:00,63.9,59.9,28.01,NNW,338,0.0,0.0,87,0.00,CLR,,0.00,WeatherDisplay:10.37,2013-10-07 07:50:00,
2013-10-07 04:00:00,63.7,60.1,28.01,NNW,338,0.0,0.0,88,0.00,CLR,,0.00,WeatherDisplay:10.37,2013-10-07 08:00:00,
2013-10-07 04:10:00,63.7,60.4,28.01,NNW,338,0.0,0.0,89,0.00,CLR,,0.00,WeatherDisplay:10.37,2013-10-07 08:10:00,
2013-10-07 04:20:00,63.8,60.1,28.01,West,271,3.0,6.0,88,0.00,CLR,,0.00,WeatherDisplay:10.37,2013-10-07 08:20:00,
2013-10-07 04:30:00,64.0,62.3,27.98,SSW,202,2.0,6.0,94,0.00,CLR,,0.00,WeatherDisplay:10.37,2013-10-07 08:30:00,
2013-10-07 04:40:00,62.6,59.3,27.98,SSW,213,5.0,8.0,89,0.00,CLR,,0.00,WeatherDisplay:10.37,2013-10-07 08:40:00,
2013-10-07 04:50:00,61.3,55.8,27.98,SSE,166,5.0,8.0,82,0.00,CLR,,0.00,WeatherDisplay:10.37,2013-10-07 08:50:00,
2013-10-07 05:00:00,60.4,55.9,27.95,SW,216,5.0,9.0,85,0.00,CLR,,0.00,WeatherDisplay:10.37,2013-10-07 09:00:00,
2013-10-07 05:10:00,59.5,55.0,27.95,West,273,5.0,6.0,85,0.00,CLR,,0.00,WeatherDisplay:10.37,2013-10-07 09:10:00,
2013-10-07 05:20:00,58.8,55.0,27.95,SW,214,3.0,7.0,87,0.00,CLR,,0.00,WeatherDisplay:10.37,2013-10-07 09:20:00,
2013-10-07 05:30:00,58.5,55.2,27.95,South,180,2.0,6.0,89,0.00,CLR,,0.00,WeatherDisplay:10.37,2013-10-07 09:30:00,
2013-10-07 05:40:00,58.1,55.5,27.95,SSE,164,5.0,7.0,91,0.00,CLR,,0.00,WeatherDisplay:10.37,2013-10-07 09:40:00,
2013-10-07 05:50:00,57.6,55.0,27.95,SSW,202,3.0,6.0,91,0.00,CLR,,0.00,WeatherDisplay:10.37,2013-10-07 09:50:00,
2013-10-07 06:00:00,57.0,54.4,27.95,SSW,203,3.0,6.0,91,0.00,CLR,,0.00,WeatherDisplay:10.37,2013-10-07 10:00:00,
2013-10-07 06:10:00,56.7,54.1,27.95,SSW,212,3.0,6.0,91,0.00,CLR,,0.00,WeatherDisplay:10.37,2013-10-07 10:10:00,
2013-10-07 06:20:00,56.5,54.2,27.95,SSW,206,5.0,9.0,92,0.00,CLR,,0.00,WeatherDisplay:10.37,2013-10-07 10:20:00,
2013-10-07 06:30:00,56.4,54.4,27.95,SSW,208,2.0,5.0,93,0.00,CLR,,0.00,WeatherDisplay:10.37,2013-10-07 10:30:00,
2013-10-07 06:40:00,56.3,54.6,27.95,SSW,211,2.0,6.0,94,0.00,CLR,,0.00,WeatherDisplay:10.37,2013-10-07 10:40:00,
2013-10-07 06:50:00,55.9,54.2,27.98,SW,219,5.0,6.0,94,0.00,CLR,,0.00,WeatherDisplay:10.37,2013-10-07 10:50:00,
2013-10-07 07:00:00,55.6,53.9,27.98,SSW,208,7.0,13.0,94,0.00,CLR,,0.00,WeatherDisplay:10.37,2013-10-07 11:00:00,
2013-10-07 07:10:00,55.2,53.8,27.98,SSW,203,1.0,9.0,95,0.00,CLR,,0.00,WeatherDisplay:10.37,2013-10-07 11:10:00,
2013-10-07 07:20:00,55.2,54.1,27.95,SW,214,5.0,7.0,96,0.00,CLR,,0.00,WeatherDisplay:10.37,2013-10-07 11:20:00,
2013-10-07 07:30:00,55.0,53.6,27.95,SSW,210,2.0,8.0,95,0.00,CLR,,0.00,WeatherDisplay:10.37,2013-10-07 11:30:00,
2013-10-07 07:40:00,55.0,53.6,27.95,SSW,210,1.0,5.0,95,0.00,CLR,,0.00,WeatherDisplay:10.37,2013-10-07 11:40:00,
2013-10-07 07:50:00,54.9,53.5,27.95,SSW,211,2.0,5.0,95,0.00,CLR,,0.00,WeatherDisplay:10.37,2013-10-07 11:50:00,
2013-10-07 08:00:00,54.9,53.5,27.98,SW,218,1.0,5.0,95,0.00,CLR,,0.00,WeatherDisplay:10.37,2013-10-07 12:00:00,
2013-10-07 08:10:00,54.7,53.3,27.98,SW,218,1.0,3.0,95,0.00,CLR,,0.00,WeatherDisplay:10.37,2013-10-07 12:10:00,
2013-10-07 08:20:00,54.7,53.3,27.98,SSW,210,2.0,5.0,95,0.00,CLR,,0.00,WeatherDisplay:10.37,2013-10-07 12:20:00,
2013-10-07 08:30:00,54.7,53.3,27.98,SSW,208,3.0,5.0,95,0.00,CLR,,0.00,WeatherDisplay:10.37,2013-10-07 12:30:00,
2013-10-07 08:40:00,54.7,53.3,27.98,SSW,212,5.0,6.0,95,0.00,CLR,,0.00,WeatherDisplay:10.37,2013-10-07 12:40:00,
2013-10-07 08:50:00,54.7,53.3,28.01,SSW,208,2.0,6.0,95,0.00,CLR,,0.00,WeatherDisplay:10.37,2013-10-07 12:50:00,
2013-10-07 09:00:00,54.9,53.5,28.01,SW,218,3.0,5.0,95,0.00,CLR,,0.00,WeatherDisplay:10.37,2013-10-07 13:00:00,
2013-10-07 09:10:00,55.0,53.9,28.01,SSW,210,3.0,6.0,96,0.00,CLR,,0.00,WeatherDisplay:10.37,2013-10-07 13:10:00,
2013-10-07 09:20:00,55.0,53.9,28.01,SSW,213,5.0,6.0,96,0.00,CLR,,0.00,WeatherDisplay:10.37,2013-10-07 13:20:00,
2013-10-07 09:30:00,55.2,54.1,28.01,WSW,254,1.0,6.0,96,0.00,CLR,,0.00,WeatherDisplay:10.37,2013-10-07 13:30:00,
2013-10-07 09:40:00,54.9,53.5,28.01,SW,218,2.0,6.0,95,0.00,CLR,,0.00,WeatherDisplay:10.37,2013-10-07 13:40:00,
2013-10-07 09:50:00,54.5,51.9,28.04,SSW,202,3.0,7.0,91,0.00,CLR,,0.00,WeatherDisplay:10.37,2013-10-07 13:50:00,
2013-10-07 10:00:00,54.7,51.8,28.04,West,278,0.0,3.0,90,0.00,CLR,,0.00,WeatherDisplay:10.37,2013-10-07 14:00:00,
2013-10-07 10:10:00,54.7,51.8,28.04,South,187,1.0,3.0,90,0.00,CLR,,0.00,WeatherDisplay:10.37,2013-10-07 14:10:00,
2013-10-07 10:20:00,54.9,52.0,28.04,SW,231,2.0,4.0,90,0.00,CLR,,0.00,WeatherDisplay:10.37,2013-10-07 14:20:00,
2013-10-07 10:30:00,55.8,52.9,28.07,SW,226,2.0,6.0,90,0.00,CLR,,0.00,WeatherDisplay:10.37,2013-10-07 14:30:00,
2013-10-07 10:40:00,55.9,52.0,28.07,SW,229,2.0,6.0,87,0.00,CLR,,0.00,WeatherDisplay:10.37,2013-10-07 14:40:00,
2013-10-07 10:50:00,55.8,51.0,28.07,SW,226,3.0,6.0,84,0.00,CLR,,0.00,WeatherDisplay:10.37,2013-10-07 14:50:00,
2013-10-07 11:00:00,56.2,51.1,28.07,SW,224,1.0,3.0,83,0.00,CLR,,0.00,WeatherDisplay:10.37,2013-10-07 15:00:00,
2013-10-07 11:10:00,56.9,51.5,28.07,WSW,249,1.0,4.0,82,0.00,CLR,,0.00,WeatherDisplay:10.37,2013-10-07 15:10:00,
2013-10-07 11:20:00,57.6,49.3,28.07,SSW,197,3.0,6.0,74,0.00,CLR,,0.00,WeatherDisplay:10.37,2013-10-07 15:20:00,
2013-10-07 11:30:00,58.1,48.7,28.07,WSW,237,1.0,6.0,71,0.00,CLR,,0.00,WeatherDisplay:10.37,2013-10-07 15:30:00,
2013-10-07 11:40:00,58.9,47.2,28.07,WSW,254,1.0,3.0,65,0.00,CLR,,0.00,WeatherDisplay:10.37,2013-10-07 15:40:00,
2013-10-07 11:50:00,58.3,44.0,28.07,NNW,331,1.0,1.0,59,0.00,CLR,,0.00,WeatherDisplay:10.37,2013-10-07 15:50:00,
2013-10-07 12:00:00,58.5,41.9,28.09,WSW,250,2.0,3.0,54,0.00,CLR,,0.00,WeatherDisplay:10.37,2013-10-07 16:00:00,
2013-10-07 12:10:00,59.0,42.8,28.09,SW,218,3.0,6.0,55,0.00,CLR,,0.00,WeatherDisplay:10.37,2013-10-07 16:10:00,
2013-10-07 12:20:00,59.5,42.4,28.07,SSW,209,5.0,5.0,53,0.00,CLR,,0.00,WeatherDisplay:10.37,2013-10-07 16:20:00,
2013-10-07 12:30:00,59.7,39.4,28.07,SSW,202,3.0,7.0,47,0.00,CLR,,0.00,WeatherDisplay:10.37,2013-10-07 16:30:00,
2013-10-07 12:40:00,60.4,39.5,28.07,WSW,237,3.0,5.0,46,0.00,CLR,,0.00,WeatherDisplay:10.37,2013-10-07 16:40:00,
2013-10-07 12:50:00,61.3,39.8,28.07,SSW,211,3.0,6.0,45,0.00,CLR,,0.00,WeatherDisplay:10.37,2013-10-07 16:50:00,
2013-10-07 13:00:00,62.1,39.3,28.07,SW,226,2.0,3.0,43,0.00,CLR,,0.00,WeatherDisplay:10.37,2013-10-07 17:00:00,
2013-10-07 13:10:00,62.1,37.5,28.07,SSW,206,1.0,3.0,40,0.00,CLR,,0.00,WeatherDisplay:10.37,2013-10-07 17:10:00,
2013-10-07 13:20:00,63.1,38.4,28.07,WSW,244,3.0,6.0,40,0.00,CLR,,0.00,WeatherDisplay:10.37,2013-10-07 17:20:00,
2013-10-07 13:30:00,64.4,36.8,28.07,SSW,211,5.0,6.0,36,0.00,CLR,,0.00,WeatherDisplay:10.37,2013-10-07 17:30:00,
2013-10-07 13:40:00,64.4,36.1,28.07,WSW,245,3.0,5.0,35,0.00,CLR,,0.00,WeatherDisplay:10.37,2013-10-07 17:40:00,
2013-10-07 13:50:00,63.3,35.9,28.07,SW,219,2.0,3.0,36,0.00,CLR,,0.00,WeatherDisplay:10.37,2013-10-07 17:50:00,
2013-10-07 14:00:00,63.8,37.7,28.07,WSW,241,2.0,5.0,38,0.00,CLR,,0.00,WeatherDisplay:10.37,2013-10-07 18:00:00,
2013-10-07 14:10:00,64.6,36.3,28.07,SW,217,3.0,7.0,35,0.00,CLR,,0.00,WeatherDisplay:10.37,2013-10-07 18:10:00,
2013-10-07 14:20:00,65.7,37.2,28.07,SW,233,1.0,5.0,35,0.00,CLR,,0.00,WeatherDisplay:10.37,2013-10-07 18:20:00,
2013-10-07 14:30:00,66.0,37.6,28.09,SW,217,3.0,6.0,35,0.00,CLR,,0.00,WeatherDisplay:10.37,2013-10-07 18:30:00,
2013-10-07 14:40:00,66.5,36.4,28.09,WSW,245,5.0,9.0,33,0.00,CLR,,0.00,WeatherDisplay:10.37,2013-10-07 18:40:00,
2013-10-07 14:50:00,65.7,36.6,28.09,SW,227,1.0,8.0,34,0.00,CLR,,0.00,WeatherDisplay:10.37,2013-10-07 18:50:00,
2013-10-07 15:00:00,66.0,36.1,28.09,SW,228,2.0,5.0,33,0.00,CLR,,0.00,WeatherDisplay:10.37,2013-10-07 19:00:00,
2013-10-07 15:10:00,65.7,35.0,28.09,WSW,240,3.0,6.0,32,0.00,CLR,,0.00,WeatherDisplay:10.37,2013-10-07 19:10:00,
2013-10-07 15:20:00,65.7,34.3,28.09,WSW,247,2.0,6.0,31,0.00,CLR,,0.00,WeatherDisplay:10.37,2013-10-07 19:20:00,
2013-10-07 15:30:00,64.8,35.0,28.09,WSW,255,2.0,3.0,33,0.00,CLR,,0.00,WeatherDisplay:10.37,2013-10-07 19:30:00,
2013-10-07 15:40:00,65.5,35.6,28.09,West,262,0.0,3.0,33,0.00,CLR,,0.00,WeatherDisplay:10.37,2013-10-07 19:40:00,
2013-10-07 15:50:00,66.2,36.2,28.09,SW,221,2.0,3.0,33,0.00,CLR,,0.00,WeatherDisplay:10.37,2013-10-07 19:50:00,
2013-10-07 16:00:00,65.7,34.2,28.12,WSW,239,2.0,4.0,31,0.00,CLR,,0.00,WeatherDisplay:10.37,2013-10-07 20:00:00,
2013-10-07 16:10:00,65.8,35.9,28.12,WSW,238,1.0,3.0,33,0.00,CLR,,0.00,WeatherDisplay:10.37,2013-10-07 20:10:00,
2013-10-07 16:20:00,67.9,37.7,28.12,North,10,1.0,2.0,33,0.00,CLR,,0.00,WeatherDisplay:10.37,2013-10-07 20:20:00,
2013-10-07 16:30:00,68.5,36.7,28.12,NW,323,1.0,2.0,31,0.00,CLR,,0.00,WeatherDisplay:10.37,2013-10-07 20:30:00,
2013-10-07 16:40:00,68.7,37.7,28.12,WSW,253,0.0,5.0,32,0.00,CLR,,0.00,WeatherDisplay:10.37,2013-10-07 20:40:00,
2013-10-07 16:50:00,68.7,37.7,28.15,SSW,213,1.0,3.0,32,0.00,CLR,,0.00,WeatherDisplay:10.37,2013-10-07 20:50:00,
2013-10-07 17:00:00,68.7,37.7,28.15,SW,217,1.0,3.0,32,0.00,CLR,,0.00,WeatherDisplay:10.37,2013-10-07 21:00:00,
2013-10-07 17:10:00,68.7,37.7,28.15,WSW,243,2.0,2.0,32,0.00,CLR,,0.00,WeatherDisplay:10.37,2013-10-07 21:10:00,
2013-10-07 17:20:00,69.4,36.6,28.15,WNW,303,1.0,2.0,30,0.00,CLR,,0.00,WeatherDisplay:10.37,2013-10-07 21:20:00,
2013-10-07 17:30:00,68.7,32.4,28.15,NNW,338,1.0,3.0,26,0.00,CLR,,0.00,WeatherDisplay:10.37,2013-10-07 21:30:00,
2013-10-07 17:40:00,68.9,38.6,28.15,NNE,19,1.0,2.0,33,0.00,CLR,,0.00,WeatherDisplay:10.37,2013-10-07 21:40:00,
2013-10-07 17:50:00,68.4,34.8,28.18,NNE,32,2.0,3.0,29,0.00,CLR,,0.00,WeatherDisplay:10.37,2013-10-07 21:50:00,
2013-10-07 18:00:00,68.4,34.0,28.18,North,0,1.0,3.0,28,0.00,CLR,,0.00,WeatherDisplay:10.37,2013-10-07 22:00:00,
2013-10-07 18:10:00,67.6,30.5,28.18,NW,308,2.0,3.0,25,0.00,CLR,,0.00,WeatherDisplay:10.37,2013-10-07 22:10:00,
2013-10-07 18:20:00,66.9,29.9,28.18,NW,320,2.0,3.0,25,0.00,CLR,,0.00,WeatherDisplay:10.37,2013-10-07 22:20:00,
2013-10-07 18:30:00,66.0,32.0,28.18,NNW,344,1.0,3.0,28,0.00,CLR,,0.00,WeatherDisplay:10.37,2013-10-07 22:30:00,
2013-10-07 18:40:00,64.6,32.4,28.18,North,8,1.0,3.0,30,0.00,CLR,,0.00,WeatherDisplay:10.37,2013-10-07 22:40:00,
2013-10-07 18:50:00,63.0,33.4,28.18,NNE,16,0.0,2.0,33,0.00,CLR,,0.00,WeatherDisplay:10.37,2013-10-07 22:50:00,
2013-10-07 19:00:00,61.2,32.6,28.18,NNW,345,0.0,1.0,34,0.00,CLR,,0.00,WeatherDisplay:10.37,2013-10-07 23:00:00,
2013-10-07 19:10:00,59.9,32.2,28.18,NNW,334,0.0,1.0,35,0.00,CLR,,0.00,WeatherDisplay:10.37,2013-10-07 23:10:00,
2013-10-07 19:20:00,59.0,32.7,28.18,WNW,300,1.0,2.0,37,0.00,CLR,,0.00,WeatherDisplay:10.37,2013-10-07 23:20:00,
2013-10-07 19:30:00,58.1,32.6,28.18,NNW,343,0.0,1.0,38,0.00,CLR,,0.00,WeatherDisplay:10.37,2013-10-07 23:30:00,
2013-10-07 19:40:00,57.4,33.2,28.18,NW,315,1.0,1.0,40,0.00,CLR,,0.00,WeatherDisplay:10.37,2013-10-07 23:40:00,
2013-10-07 19:50:00,56.9,34.0,28.18,NW,315,0.0,0.0,42,0.00,CLR,,0.00,WeatherDisplay:10.37,2013-10-07 23:50:00,
2013-10-07 20:00:00,56.3,34.6,28.18,North,3,1.0,0.0,44,0.00,CLR,,0.00,WeatherDisplay:10.37,2013-10-08 00:00:00,
2013-10-07 20:10:00,55.8,34.2,28.18,NW,315,1.0,2.0,44,0.00,CLR,,0.00,WeatherDisplay:10.37,2013-10-08 00:10:00,
2013-10-07 20:20:00,55.2,34.2,28.18,NW,315,0.0,1.0,45,0.00,CLR,,0.00,WeatherDisplay:10.37,2013-10-08 00:20:00,
2013-10-07 20:30:00,54.8,34.9,28.18,NNW,339,0.0,2.0,47,0.00,CLR,,0.00,WeatherDisplay:10.37,2013-10-08 00:30:00,
2013-10-07 20:40:00,54.3,35.0,28.18,NNE,30,0.0,1.0,48,0.00,CLR,,0.00,WeatherDisplay:10.37,2013-10-08 00:40:00,
2013-10-07 20:50:00,54.1,34.9,28.21,ESE,122,0.0,1.0,48,0.00,CLR,,0.00,WeatherDisplay:10.37,2013-10-08 00:50:00,
2013-10-07 21:00:00,53.6,34.9,28.21,SSE,158,0.0,0.0,49,0.00,CLR,,0.00,WeatherDisplay:10.37,2013-10-08 01:00:00,
2013-10-07 21:10:00,53.1,35.9,28.21,SSE,158,0.0,0.0,52,0.00,CLR,,0.00,WeatherDisplay:10.37,2013-10-08 01:10:00,
2013-10-07 21:20:00,53.2,37.5,28.21,SSE,158,0.0,1.0,55,0.00,CLR,,0.00,WeatherDisplay:10.37,2013-10-08 01:20:00,
2013-10-07 21:30:00,53.4,36.7,28.21,SSE,158,0.0,1.0,53,0.00,CLR,,0.00,WeatherDisplay:10.37,2013-10-08 01:30:00,
2013-10-07 21:40:00,53.3,35.6,28.21,SSE,158,0.0,0.0,51,0.00,CLR,,0.00,WeatherDisplay:10.37,2013-10-08 01:40:00,
2013-10-07 21:50:00,52.9,35.7,28.21,SSE,158,0.0,0.0,52,0.00,CLR,,0.00,WeatherDisplay:10.37,2013-10-08 01:50:00,
2013-10-07 22:00:00,52.3,36.2,28.21,SSE,158,0.0,0.0,54,0.00,CLR,,0.00,WeatherDisplay:10.37,2013-10-08 02:00:00,
2013-10-07 22:10:00,52.3,36.6,28.21,SSE,158,0.0,1.0,55,0.00,CLR,,0.00,WeatherDisplay:10.37,2013-10-08 02:10:00,
2013-10-07 22:20:00,52.5,36.4,28.24,NNE,32,0.0,2.0,54,0.00,CLR,,0.00,WeatherDisplay:10.37,2013-10-08 02:20:00,
2013-10-07 22:30:00,52.5,35.9,28.24,NNE,28,1.0,2.0,53,0.00,CLR,,0.00,WeatherDisplay:10.37,2013-10-08 02:30:00,
2013-10-07 22:40:00,52.3,36.2,28.24,NNE,22,1.0,2.0,54,0.00,CLR,,0.00,WeatherDisplay:10.37,2013-10-08 02:40:00,
2013-10-07 22:50:00,52.5,35.9,28.24,NNE,22,1.0,2.0,53,0.00,CLR,,0.00,WeatherDisplay:10.37,2013-10-08 02:50:00,
2013-10-07 23:00:00,52.3,35.2,28.24,NNE,22,1.0,2.0,52,0.00,CLR,,0.00,WeatherDisplay:10.37,2013-10-08 03:00:00,
2013-10-07 23:10:00,52.2,35.1,28.24,NNE,22,1.0,2.0,52,0.00,CLR,,0.00,WeatherDisplay:10.37,2013-10-08 03:10:00,
2013-10-07 23:20:00,51.8,34.7,28.24,NNE,22,1.0,2.0,52,0.00,CLR,,0.00,WeatherDisplay:10.37,2013-10-08 03:20:00,
2013-10-07 23:30:00,51.8,34.7,28.24,NNE,22,1.0,0.0,52,0.00,CLR,,0.00,WeatherDisplay:10.37,2013-10-08 03:30:00,
2013-10-07 23:40:00,52.0,34.9,28.24,NNE,22,0.0,0.0,52,0.00,CLR,,0.00,WeatherDisplay:10.37,2013-10-08 03:40:00,
2013-10-07 23:50:00,51.6,35.0,28.24,NNE,20,1.0,1.0,53,0.00,CLR,,0.00,WeatherDisplay:10.37,2013-10-08 03:50:00,